This demonstration page uses our WeatherBlox Daily Observations layout. Learn more.

Left ArrowRight Arrow

Hourly Observations for May 30, 2020

Temp ( °F °C ) Dew Point ( °F °C ) Humidity (%) Winds ( mph kmh ) Pressure ( in mb ) Visibility ( mi km ) Precip ( " mm )
12:56 am 00:56 Clear 59 15 50 10 72 72 ESE 7 11 30.17 1022 10 16 0.00 0.00
1:56 am 01:56 Clear 59 15 49 9.4 69 69 E 9 15 30.16 1021 10 16 0.00 0.00
2:56 am 02:56 Clear 59 15 48 8.9 67 67 E 8 13 30.16 1021 10 16 0.00 0.00
3:56 am 03:56 Clear 58 14.4 46 7.8 65 65 ESE 9 15 30.15 1021 10 16 0.00 0.00
4:56 am 04:56 Clear 58 14.4 46 7.8 65 65 ESE 6 9 30.14 1021 10 16 0.00 0.00
5:56 am 05:56 Partly Cloudy 55 12.8 49 9.4 80 80 ENE 7 11 30.16 1021 10 16 0.00 0.00
6:56 am 06:56 Sunny 58 14.4 48 8.9 70 70 ESE 13 20 30.13 1020 10 16 0.00 0.00
7:56 am 07:56 Sunny 61 16.1 50 10 67 67 E 15 24 30.13 1020 10 16 0.00 0.00
8:56 am 08:56 Sunny 61 16.1 49 9.4 65 65 E 21 33 30.17 1022 10 16 0.00 0.00
9:56 am 09:56 Sunny 64 17.8 49 9.4 58 58 E 21 33 30.19 1022 10 16 0.00 0.00
10:56 am 10:56 Sunny 66 18.9 50 10 56 56 E 22 35 30.17 1022 10 16 0.00 0.00
11:56 am 11:56 Mostly Cloudy 68 20 50 10 53 53 E 22 35 30.16 1022 9 14 0.00 0.00
12:56 pm 12:56 Sunny 71 21.7 52 11.1 51 51 ESE 24 39 30.15 1021 10 16 0.00 0.00
1:56 pm 13:56 Sunny 73 22.8 53 11.7 50 50 ESE 22 35 30.15 1021 10 16 0.00 0.00
2:56 pm 14:56 Partly Cloudy 73 22.8 53 11.7 50 50 E 21 33 30.15 1021 10 16 0.00 0.00
3:56 pm 15:56 Mostly Cloudy 74 23.3 53 11.7 48 48 ESE 22 35 30.14 1021 10 16 0.00 0.00
4:56 pm 16:56 Mostly Sunny 75 23.9 55 12.8 50 50 ESE 22 35 30.12 1020 10 16 0.00 0.00
5:56 pm 17:56 Sunny 75 23.9 55 12.8 50 50 E 22 35 30.11 1020 10 16 0.00 0.00
6:56 pm 18:56 Sunny 73 22.8 53 11.7 50 50 E 26 43 30.10 1019 10 16 0.00 0.00
7:56 pm 19:56 Sunny 69 20.6 53 11.7 57 57 E 21 33 30.11 1020 10 16 0.00 0.00
8:56 pm 20:56 Sunny 65 18.3 53 11.7 66 66 E 20 31 30.13 1020 10 16 0.00 0.00
9:56 pm 21:56 Clear 62 16.7 53 11.7 73 73 E 16 26 30.14 1021 10 16 0.00 0.00
10:56 pm 22:56 Clear 60 15.6 53 11.7 78 78 E 17 28 30.16 1021 10 16 0.00 0.00
11:56 pm 23:56 Mostly Clear 59 15 53 11.7 81 81 E 13 20 30.16 1021 10 16 0.00 0.00

Powered by AerisWeather